Location: New Canada
(47.1017°N, 68.5042°W)
Time: 12:36:09
(UTC+00:00)

N. Korean satellite - Pass Details

Date: 06 December 2022
Orbit: 407 x 441 km, 97.3° (Epoch: 05 February)

Event Time Altitude Azimuth Distance (km) Brightness Sun altitude
Rises 09:52:39 0° 14° (NNE) 2,518 10.2 -21.7°
Reaches altitude 10° 09:54:44 10° 16° (NNE) 1,631 9.3 -21.3°
Maximum altitude 09:58:14 75° 101° (E) 484 6.6 -20.7°
Drops below altitude 10° 10:01:39 10° 188° (S) 1,589 9.2 -20.2°
Sets 10:03:39 0° 190° (S) 2,447 10.2 -19.8°
